IW1QLH-13 Weather Reports


Display with metric or nautical units.
time (UTC)temp
F
wind
direction
speed
MPH
gust
MPH
rain 1hr
in
rain 24hr
in
rain mn
in
humidity
%
barometer
mb
20260831000712 69 0.0 0.0 0.00 0.00 0.00 11 1007.5
20260830235305 69 0.0 0.0 0.00 0.00 0.00 11 1007.5
20260830232431 71 0.0 0.0 0.00 0.00 0.00 11 1007.7
20260830231117 71 0.0 0.0 0.00 0.00 0.00 11 1007.6
20260830225658 71 0.0 0.0 0.00 0.00 0.00 11 1007.7
20260830223231 71 0.0 1.0 0.00 0.00 0.00 11 1007.6
20260830222220 71 0.0 0.0 0.00 0.00 0.00 11 1007.6
20260830221208 71 0.0 0.0 0.00 0.00 0.00 11 1007.6
20260830215044 73 0.0 3.0 0.00 0.00 0.00 11 1007.5
20260830214033 73 0.0 0.0 0.00 0.00 0.00 11 1007.4
20260830212817 73 0.0 1.0 0.00 0.00 0.00 11 1007.4
20260830211805 73 0.0 0.0 0.00 0.00 0.00 11 1007.4
20260830210754 73 0.0 0.0 0.00 0.00 0.00 11 1007.3
20260830205742 73 0.0 1.0 0.00 0.00 0.00 11 1007.3
20260830204630 73 0.0 0.0 0.00 0.00 0.00 11 1007.3
20260830203615 73 0.0 2.0 0.00 0.00 0.00 11 1007.2
20260830202604 75 0.0 0.0 0.00 0.00 0.00 11 1007.2
20260830201548 75 0.0 0.0 0.00 0.00 0.00 11 1007.2
20260830195818 75 0.0 1.0 0.00 0.00 0.00 11 1007.4
20260830194704 75 0.0 0.0 0.00 0.00 0.00 11 1007.3
20260830193046 75 0.0 0.0 0.00 0.00 0.00 11 1007.2
20260830190316 78 0.0 2.0 0.00 0.00 0.00 11 1007.1
20260830185306 78 0.0 1.0 0.00 0.00 0.00 11 1007.1
20260830184147 77 1.0 3.0 0.00 0.00 0.00 11 1007.0
20260830183136 78 1.0 3.0 0.00 0.00 0.00 11 1006.9
20260830182124 78 2.0 3.0 0.00 0.00 0.00 11 1006.8
20260830181113 78 1.0 4.0 0.00 0.00 0.00 11 1006.7
20260830175050 78 2.0 4.0 0.00 0.00 0.00 11 1006.7
20260830174039 78 3.0 4.0 0.00 0.00 0.00 11 1006.6
20260830173028 78 1.0 4.0 0.00 0.00 0.00 11 1006.5
20260830172016 78 1.0 4.0 0.00 0.00 0.00 11 1006.5
20260830171005 78 2.0 4.0 0.00 0.00 0.00 11 1006.8
20260830165954 78 2.0 4.0 0.00 0.00 0.00 11 1006.7
20260830164942 78 3.0 5.0 0.00 0.00 0.00 11 1006.8
20260830163931 80 0.0 4.0 0.00 0.00 0.00 11 1006.7
20260830162910 80 2.0 4.0 0.00 0.00 0.00 11 1006.6
20260830161853 80 2.0 4.0 0.00 0.00 0.00 11 1006.7
20260830160841 80 0.0 6.0 0.00 0.00 0.00 11 1006.6
20260830155829 80 4.0 6.0 0.00 0.00 0.00 11 1006.6
20260830154812 82 1.0 3.0 0.00 0.00 0.00 11 1006.7
20260830153800 80 2.0 5.0 0.00 0.00 0.00 11 1006.6
20260830152746 84 0.0 3.0 0.00 0.00 0.00 11 1006.7
20260830151734 84 3.0 6.0 0.00 0.00 0.00 11 1006.8
20260830150723 84 1.0 4.0 0.00 0.00 0.00 11 1006.8
20260830145708 84 3.0 6.0 0.00 0.00 0.00 11 1006.8
20260830144653 84 0.0 4.0 0.00 0.00 0.00 11 1006.9
20260830143642 84 2.0 8.0 0.00 0.00 0.00 11 1006.9
20260830142630 86 3.0 6.0 0.00 0.00 0.00 11 1007.0
20260830141619 86 1.0 4.0 0.00 0.00 0.00 11 1007.1
20260830140608 84 3.0 8.0 0.00 0.00 0.00 11 1007.1
20260830135556 86 0.0 7.0 0.00 0.00 0.00 11 1007.2
20260830134544 86 2.0 6.0 0.00 0.00 0.00 11 1007.1
20260830133533 86 1.0 8.0 0.00 0.00 0.00 10 1007.2
20260830132521 87 2.0 5.0 0.00 0.00 0.00 94 1007.2
20260830131510 87 2.0 6.0 0.00 0.00 0.00 10 1007.3
20260830130458 89 0.0 8.0 0.00 0.00 0.00 94 1007.4
20260830125446 91 1.0 3.0 0.00 0.00 0.00 82 1007.4
20260830124435 89 0.0 7.0 0.00 0.00 0.00 93 1007.4
20260830123424 89 1.0 9.0 0.00 0.00 0.00 89 1007.4
20260830122412 87 4.0 9.0 0.00 0.00 0.00 95 1007.4
20260830121401 89 1.0 6.0 0.00 0.00 0.00 95 1007.4
20260830120350 87 6.0 11.0 0.00 0.00 0.00 98 1007.3
20260830115338 87 7.0 11.0 0.00 0.00 0.00 99 1007.3
20260830114327 87 4.0 12.0 0.00 0.00 0.00 10 1007.2
20260830113315 87 6.0 16.0 0.00 0.00 0.00 10 1007.2
20260830112306 87 5.0 9.0 0.00 0.00 0.00 98 1007.3
20260830111253 89 4.0 9.0 0.00 0.00 0.00 98 1007.3
20260830110242 89 4.0 9.0 0.00 0.00 0.00 95 1007.4
20260830105231 89 3.0 11.0 0.00 0.00 0.00 97 1007.3
20260830104219 91 2.0 8.0 0.00 0.00 0.00 95 1007.4
20260830103208 87 5.0 8.0 0.00 0.00 0.00 10 1007.5
20260830102157 89 5.0 7.0 0.00 0.00 0.00 10 1007.6
20260830101145 87 4.0 9.0 0.00 0.00 0.00 10 1007.6
20260830100134 87 2.0 6.0 0.00 0.00 0.00 10 1007.7
20260830095123 89 4.0 8.0 0.00 0.00 0.00 10 1007.8
20260830094111 87 2.0 8.0 0.00 0.00 0.00 10 1007.9
20260830093100 89 3.0 9.0 0.00 0.00 0.00 10 1007.8
20260830092049 89 2.0 7.0 0.00 0.00 0.00 10 1007.9
20260830091037 89 4.0 8.0 0.00 0.00 0.00 10 1008.0
20260830090025 87 1.0 10.0 0.00 0.00 0.00 11 1007.8
20260830085013 87 5.0 9.0 0.00 0.00 0.00 11 1007.8
20260830084002 87 2.0 11.0 0.00 0.00 0.00 11 1007.7
20260830082950 86 3.0 8.0 0.00 0.00 0.00 11 1007.7
20260830081939 86 4.0 8.0 0.00 0.00 0.00 11 1007.6
20260830080927 86 6.0 8.0 0.00 0.00 0.00 11 1007.6
20260830075915 86 0.0 8.0 0.00 0.00 0.00 11 1007.5
20260830074903 84 3.0 7.0 0.00 0.00 0.00 11 1007.4
20260830073852 84 4.0 8.0 0.00 0.00 0.00 11 1007.4
20260830072840 84 1.0 6.0 0.00 0.00 0.00 11 1007.3
20260830071829 84 3.0 6.0 0.00 0.00 0.00 11 1007.2
20260830070818 82 3.0 7.0 0.00 0.00 0.00 11 1007.1
20260830065806 84 0.0 3.0 0.00 0.00 0.00 11 1007.2
20260830064755 82 1.0 4.0 0.00 0.00 0.00 11 1007.1
20260830063744 80 0.0 4.0 0.00 0.00 0.00 11 1007.0
20260830062732 78 0.0 5.0 0.00 0.00 0.00 11 1007.0
20260830061619 75 0.0 1.0 0.00 0.00 0.00 11 1007.0
20260830060002 73 0.0 0.0 0.00 0.00 0.00 11 1006.9
20260830054951 73 0.0 0.0 0.00 0.00 0.00 11 1006.8
20260830053838 73 0.0 1.0 0.00 0.00 0.00 11 1006.8
20260830052826 71 0.0 1.0 0.00 0.00 0.00 11 1006.6
20260830051714 71 0.0 0.0 0.00 0.00 0.00 11 1006.6
20260830050157 71 0.0 0.0 0.00 0.00 0.00 11 1006.5
20260830043625 71 0.0 0.0 0.00 0.00 0.00 11 1006.5
20260830042007 73 0.0 0.0 0.00 0.00 0.00 11 1006.5
20260830040853 73 0.0 1.0 0.00 0.00 0.00 11 1006.5
20260830035842 73 0.0 1.0 0.00 0.00 0.00 11 1006.5
20260830034830 73 1.0 2.0 0.00 0.00 0.00 11 1006.4
20260830033414 73 0.0 1.0 0.00 0.00 0.00 11 1006.5
20260830032401 73 0.0 0.0 0.00 0.00 0.00 11 1006.5
20260830031046 73 0.0 1.0 0.00 0.00 0.00 11 1006.3
20260830030034 73 1.0 3.0 0.00 0.00 0.00 11 1006.2
20260830024922 73 0.0 0.0 0.00 0.00 0.00 11 1006.2
20260830023708 73 0.0 2.0 0.00 0.00 0.00 11 1006.2
20260830022656 71 0.0 1.0 0.00 0.00 0.00 11 1006.4
20260830021645 71 0.0 0.0 0.00 0.00 0.00 11 1006.5
20260830020128 71 0.0 0.0 0.00 0.00 0.00 11 1006.5
20260830014712 73 0.0 1.0 0.00 0.00 0.00 11 1006.4
20260830013701 73 0.0 1.0 0.00 0.00 0.00 11 1006.4
20260830012649 73 0.0 1.0 0.00 0.00 0.00 11 1006.5
20260830011638 73 0.0 0.0 0.00 0.00 0.00 11 1006.4
20260830010627 73 1.0 2.0 0.00 0.00 0.00 11 1006.4
20260830005615 73 0.0 3.0 0.00 0.00 0.00 11 1006.5
20260830004359 73 0.0 0.0 0.00 0.00 0.00 11 1006.6
20260830002538 73 0.0 2.0 0.00 0.00 0.00 11 1006.6